Year,Month,Day,Hour,Minute,Value (Times are PST for temperature in C)
2015,07,17,00,00,17.80
2015,07,17,00,01,17.80
2015,07,17,00,02,17.80
2015,07,17,00,03,17.80
2015,07,17,00,04,17.80
2015,07,17,00,05,17.80
2015,07,17,00,06,17.70
2015,07,17,00,07,17.70
2015,07,17,00,08,17.70
2015,07,17,00,09,17.70
2015,07,17,00,10,17.70
2015,07,17,00,11,17.70
2015,07,17,00,12,17.70
2015,07,17,00,13,17.70
2015,07,17,00,14,17.70
2015,07,17,00,15,17.70
2015,07,17,00,16,17.70
2015,07,17,00,17,17.70
2015,07,17,00,18,17.70
2015,07,17,00,19,17.70
2015,07,17,00,20,17.60
2015,07,17,00,21,17.60
2015,07,17,00,22,17.60
2015,07,17,00,23,17.60
2015,07,17,00,24,17.60
2015,07,17,00,25,17.60
2015,07,17,00,26,17.60
2015,07,17,00,27,17.50
2015,07,17,00,28,17.50
2015,07,17,00,29,17.50
2015,07,17,00,30,17.50
2015,07,17,00,31,17.50
2015,07,17,00,32,17.50
2015,07,17,00,33,17.50
2015,07,17,00,34,17.50
2015,07,17,00,35,17.50
2015,07,17,00,36,17.50
2015,07,17,00,37,17.40
2015,07,17,00,38,17.40
2015,07,17,00,39,17.40
2015,07,17,00,40,17.40
2015,07,17,00,41,17.40
2015,07,17,00,42,17.40
2015,07,17,00,43,17.40
2015,07,17,00,44,17.40
2015,07,17,00,45,17.40
2015,07,17,00,46,17.40
2015,07,17,00,47,17.40
2015,07,17,00,48,17.40
2015,07,17,00,49,17.40
2015,07,17,00,50,17.40
2015,07,17,00,51,17.40
2015,07,17,00,52,17.40
2015,07,17,00,53,17.40
2015,07,17,00,54,17.40
2015,07,17,00,55,17.40
2015,07,17,00,56,17.40
2015,07,17,00,57,17.40
2015,07,17,00,58,17.40
2015,07,17,00,59,17.40
2015,07,17,01,00,17.40
2015,07,17,01,01,17.40
2015,07,17,01,02,17.40
2015,07,17,01,03,17.40
2015,07,17,01,04,17.40
2015,07,17,01,05,17.30
2015,07,17,01,06,17.30
2015,07,17,01,07,17.30
2015,07,17,01,08,17.30
2015,07,17,01,09,17.30
2015,07,17,01,10,17.30
2015,07,17,01,11,17.20
2015,07,17,01,12,17.20
2015,07,17,01,13,17.20
2015,07,17,01,14,17.20
2015,07,17,01,15,17.20
2015,07,17,01,16,17.20
2015,07,17,01,17,17.20
2015,07,17,01,18,17.20
2015,07,17,01,19,17.20
2015,07,17,01,20,17.20
2015,07,17,01,21,17.20
2015,07,17,01,22,17.20
2015,07,17,01,23,17.10
2015,07,17,01,24,17.10
2015,07,17,01,25,17.10
2015,07,17,01,26,17.10
2015,07,17,01,27,17.10
2015,07,17,01,28,17.10
2015,07,17,01,29,17.10
2015,07,17,01,30,17.10
2015,07,17,01,31,17.10
2015,07,17,01,32,17.10
2015,07,17,01,33,17.10
2015,07,17,01,34,17.10
2015,07,17,01,35,17.10
2015,07,17,01,36,17.10
2015,07,17,01,37,17.10
2015,07,17,01,38,17.00
2015,07,17,01,39,17.10
2015,07,17,01,40,17.10
2015,07,17,01,41,17.10
2015,07,17,01,42,17.00
2015,07,17,01,43,17.00
2015,07,17,01,44,17.00
2015,07,17,01,45,17.00
2015,07,17,01,46,17.00
2015,07,17,01,47,16.90
2015,07,17,01,48,16.90
2015,07,17,01,49,16.90
2015,07,17,01,50,16.90
2015,07,17,01,51,16.80
2015,07,17,01,52,16.80
2015,07,17,01,53,16.80
2015,07,17,01,54,16.80
2015,07,17,01,55,16.80
2015,07,17,01,56,16.80
2015,07,17,01,57,16.80
2015,07,17,01,58,16.80
2015,07,17,01,59,16.70
2015,07,17,02,00,16.70
2015,07,17,02,01,16.70
2015,07,17,02,02,16.60
2015,07,17,02,03,16.60
2015,07,17,02,04,16.60
2015,07,17,02,05,16.60
2015,07,17,02,06,16.50
2015,07,17,02,07,16.50
2015,07,17,02,08,16.50
2015,07,17,02,09,16.50
2015,07,17,02,10,16.40
2015,07,17,02,11,16.40
2015,07,17,02,12,16.40
2015,07,17,02,13,16.30
2015,07,17,02,14,16.30
2015,07,17,02,15,16.30
2015,07,17,02,16,16.20
2015,07,17,02,17,16.20
2015,07,17,02,18,16.10
2015,07,17,02,19,16.10
2015,07,17,02,20,16.00
2015,07,17,02,21,16.00
2015,07,17,02,22,15.90
2015,07,17,02,23,15.90
2015,07,17,02,24,15.90
2015,07,17,02,25,15.80
2015,07,17,02,26,15.80
2015,07,17,02,27,15.90
2015,07,17,02,28,15.90
2015,07,17,02,29,15.90
2015,07,17,02,30,15.90
2015,07,17,02,31,15.90
2015,07,17,02,32,15.90
2015,07,17,02,33,15.90
2015,07,17,02,34,15.90
2015,07,17,02,35,16.00
2015,07,17,02,36,16.00
2015,07,17,02,37,16.00
2015,07,17,02,38,16.00
2015,07,17,02,39,16.00
2015,07,17,02,40,16.00
2015,07,17,02,41,16.00
2015,07,17,02,42,16.00
2015,07,17,02,43,15.90
2015,07,17,02,44,15.90
2015,07,17,02,45,15.90
2015,07,17,02,46,15.90
2015,07,17,02,47,15.90
2015,07,17,02,48,15.80
2015,07,17,02,49,15.80
2015,07,17,02,50,15.80
2015,07,17,02,51,15.80
2015,07,17,02,52,15.80
2015,07,17,02,53,15.80
2015,07,17,02,54,15.70
2015,07,17,02,55,15.70
2015,07,17,02,56,15.70
2015,07,17,02,57,15.70
2015,07,17,02,58,15.60
2015,07,17,02,59,15.60
2015,07,17,03,00,15.60
2015,07,17,03,01,15.50
2015,07,17,03,02,15.50
2015,07,17,03,03,15.50
2015,07,17,03,04,15.40
2015,07,17,03,05,15.40
2015,07,17,03,06,15.40
2015,07,17,03,07,15.40
2015,07,17,03,08,15.40
2015,07,17,03,09,15.40
2015,07,17,03,10,15.40
2015,07,17,03,11,15.40
2015,07,17,03,12,15.40
2015,07,17,03,13,15.30
2015,07,17,03,14,15.30
2015,07,17,03,15,15.30
2015,07,17,03,16,15.20
2015,07,17,03,17,15.20
2015,07,17,03,18,15.10
2015,07,17,03,19,15.10
2015,07,17,03,20,15.10
2015,07,17,03,21,15.00
2015,07,17,03,22,15.00
2015,07,17,03,23,14.90
2015,07,17,03,24,14.90
2015,07,17,03,25,14.90
2015,07,17,03,26,14.80
2015,07,17,03,27,14.80
2015,07,17,03,28,14.80
2015,07,17,03,29,14.80
2015,07,17,03,30,14.70
2015,07,17,03,31,14.70
2015,07,17,03,32,14.70
2015,07,17,03,33,14.60
2015,07,17,03,34,14.60
2015,07,17,03,35,14.60
2015,07,17,03,36,14.50
2015,07,17,03,37,14.50
2015,07,17,03,38,14.40
2015,07,17,03,39,14.40
2015,07,17,03,40,14.40
2015,07,17,03,41,14.40
2015,07,17,03,42,14.30
2015,07,17,03,43,14.30
2015,07,17,03,44,14.30
2015,07,17,03,45,14.20
2015,07,17,03,46,14.20
2015,07,17,03,47,14.10
2015,07,17,03,48,14.10
2015,07,17,03,49,14.10
2015,07,17,03,50,14.10
2015,07,17,03,51,14.00
2015,07,17,03,52,14.00
2015,07,17,03,53,14.00
2015,07,17,03,54,14.00
2015,07,17,03,55,13.90
2015,07,17,03,56,13.90
2015,07,17,03,57,13.90
2015,07,17,03,58,13.90
2015,07,17,03,59,13.90
2015,07,17,04,00,13.80
2015,07,17,04,01,13.80
2015,07,17,04,02,13.80
2015,07,17,04,03,13.80
2015,07,17,04,04,13.80
2015,07,17,04,05,13.70
2015,07,17,04,06,13.70
2015,07,17,04,07,13.70
2015,07,17,04,08,13.70
2015,07,17,04,09,13.70
2015,07,17,04,10,13.70
2015,07,17,04,11,13.70
2015,07,17,04,12,13.80
2015,07,17,04,13,13.90
2015,07,17,04,14,14.00
2015,07,17,04,15,14.10
2015,07,17,04,16,14.20
2015,07,17,04,17,14.30
2015,07,17,04,18,14.50
2015,07,17,04,19,14.60
2015,07,17,04,20,14.80
2015,07,17,04,21,14.90
2015,07,17,04,22,15.00
2015,07,17,04,23,15.00
2015,07,17,04,24,15.10
2015,07,17,04,25,15.00
2015,07,17,04,26,15.00
2015,07,17,04,27,14.90
2015,07,17,04,28,14.80
2015,07,17,04,29,14.80
2015,07,17,04,30,14.80
2015,07,17,04,31,14.70
2015,07,17,04,32,14.70
2015,07,17,04,33,14.70
2015,07,17,04,34,14.70
2015,07,17,04,35,14.70
2015,07,17,04,36,14.80
2015,07,17,04,37,14.90
2015,07,17,04,38,14.90
2015,07,17,04,39,15.10
2015,07,17,04,40,15.10
2015,07,17,04,41,15.20
2015,07,17,04,42,15.20
2015,07,17,04,43,15.30
2015,07,17,04,44,15.40
2015,07,17,04,45,15.40
2015,07,17,04,46,15.50
2015,07,17,04,47,15.50
2015,07,17,04,48,15.60
2015,07,17,04,49,15.60
2015,07,17,04,50,15.70
2015,07,17,04,51,15.70
2015,07,17,04,52,15.80
2015,07,17,04,53,15.80
2015,07,17,04,54,15.80
2015,07,17,04,55,15.80
2015,07,17,04,56,15.90
2015,07,17,04,57,15.90
2015,07,17,04,58,15.90
2015,07,17,04,59,15.90
2015,07,17,05,00,15.90
2015,07,17,05,01,15.90
2015,07,17,05,02,15.90
2015,07,17,05,03,16.00
2015,07,17,05,04,15.90
2015,07,17,05,05,16.00
2015,07,17,05,06,16.00
2015,07,17,05,07,16.00
2015,07,17,05,08,16.00
2015,07,17,05,09,16.00
2015,07,17,05,10,16.00
2015,07,17,05,11,16.00
2015,07,17,05,12,16.00
2015,07,17,05,13,16.00
2015,07,17,05,14,16.00
2015,07,17,05,15,16.00
2015,07,17,05,16,16.00
2015,07,17,05,17,16.00
2015,07,17,05,18,16.00
2015,07,17,05,19,16.00
2015,07,17,05,20,16.00
2015,07,17,05,21,16.00
2015,07,17,05,22,16.00
2015,07,17,05,23,16.00
2015,07,17,05,24,16.00
2015,07,17,05,25,16.00
2015,07,17,05,26,15.90
2015,07,17,05,27,15.90
2015,07,17,05,28,15.90
2015,07,17,05,29,15.90
2015,07,17,05,30,16.00
2015,07,17,05,31,16.00
2015,07,17,05,32,16.00
2015,07,17,05,33,16.00
2015,07,17,05,34,16.00
2015,07,17,05,35,16.00
2015,07,17,05,36,15.90
2015,07,17,05,37,15.90
2015,07,17,05,38,16.00
2015,07,17,05,39,16.00
2015,07,17,05,40,16.00
2015,07,17,05,41,16.00
2015,07,17,05,42,16.00
2015,07,17,05,43,16.00
2015,07,17,05,44,16.10
2015,07,17,05,45,16.10
2015,07,17,05,46,16.10
2015,07,17,05,47,16.10
2015,07,17,05,48,16.10
2015,07,17,05,49,16.10
2015,07,17,05,50,16.10
2015,07,17,05,51,16.10
2015,07,17,05,52,16.10
2015,07,17,05,53,16.10
2015,07,17,05,54,16.10
2015,07,17,05,55,16.10
2015,07,17,05,56,16.00
2015,07,17,05,57,16.00
2015,07,17,05,58,16.00
2015,07,17,05,59,16.00
2015,07,17,06,00,16.00
2015,07,17,06,01,16.00
2015,07,17,06,02,16.00
2015,07,17,06,03,16.10
2015,07,17,06,04,16.10
2015,07,17,06,05,16.10
2015,07,17,06,06,16.20
2015,07,17,06,07,16.20
2015,07,17,06,08,16.20
2015,07,17,06,09,16.20
2015,07,17,06,10,16.20
2015,07,17,06,11,16.20
2015,07,17,06,12,16.20
2015,07,17,06,13,16.20
2015,07,17,06,14,16.20
2015,07,17,06,15,16.20
2015,07,17,06,16,16.20
2015,07,17,06,17,16.20
2015,07,17,06,18,16.20
2015,07,17,06,19,16.20
2015,07,17,06,20,16.20
2015,07,17,06,21,16.20
2015,07,17,06,22,16.20
2015,07,17,06,23,16.20
2015,07,17,06,24,16.30
2015,07,17,06,25,16.30
2015,07,17,06,26,16.30
2015,07,17,06,27,16.30
2015,07,17,06,28,16.30
2015,07,17,06,29,16.30
2015,07,17,06,30,16.30
2015,07,17,06,31,16.30
2015,07,17,06,32,16.30
2015,07,17,06,33,16.30
2015,07,17,06,34,16.30
2015,07,17,06,35,16.30
2015,07,17,06,36,16.30
2015,07,17,06,37,16.30
2015,07,17,06,38,16.30
2015,07,17,06,39,16.30
2015,07,17,06,40,16.30
2015,07,17,06,41,16.30
2015,07,17,06,42,16.30
2015,07,17,06,43,16.30
2015,07,17,06,44,16.30
2015,07,17,06,45,16.30
2015,07,17,06,46,16.30
2015,07,17,06,47,16.30
2015,07,17,06,48,16.30
2015,07,17,06,49,16.30
2015,07,17,06,50,16.30
2015,07,17,06,51,16.30
2015,07,17,06,52,16.30
2015,07,17,06,53,16.30
2015,07,17,06,54,16.30
2015,07,17,06,55,16.30
2015,07,17,06,56,16.30
2015,07,17,06,57,16.30
2015,07,17,06,58,16.30
2015,07,17,06,59,16.30
2015,07,17,07,00,16.40
2015,07,17,07,01,16.40
2015,07,17,07,02,16.50
2015,07,17,07,03,16.50
2015,07,17,07,04,16.50
2015,07,17,07,05,16.50
2015,07,17,07,06,16.60
2015,07,17,07,07,16.60
2015,07,17,07,08,16.60
2015,07,17,07,09,16.60
2015,07,17,07,10,16.60
2015,07,17,07,11,16.70
2015,07,17,07,12,16.70
2015,07,17,07,13,16.70
2015,07,17,07,14,16.70
2015,07,17,07,15,16.80
2015,07,17,07,16,16.80
2015,07,17,07,17,16.80
2015,07,17,07,18,16.80
2015,07,17,07,19,16.80
2015,07,17,07,20,16.80
2015,07,17,07,21,16.80
2015,07,17,07,22,16.90
2015,07,17,07,23,16.90
2015,07,17,07,24,16.90
2015,07,17,07,25,17.00
2015,07,17,07,26,17.00
2015,07,17,07,27,17.00
2015,07,17,07,28,17.00
2015,07,17,07,29,17.00
2015,07,17,07,30,17.10
2015,07,17,07,31,17.10
2015,07,17,07,32,17.10
2015,07,17,07,33,17.10
2015,07,17,07,34,17.10
2015,07,17,07,35,17.20
2015,07,17,07,36,17.20
2015,07,17,07,37,17.20
2015,07,17,07,38,17.20
2015,07,17,07,39,17.20
2015,07,17,07,40,17.30
2015,07,17,07,41,17.30
2015,07,17,07,42,17.30
2015,07,17,07,43,17.40
2015,07,17,07,44,17.40
2015,07,17,07,45,17.40
2015,07,17,07,46,17.40
2015,07,17,07,47,17.40
2015,07,17,07,48,17.40
2015,07,17,07,49,17.40
2015,07,17,07,50,17.50
2015,07,17,07,51,17.50
2015,07,17,07,52,17.60
2015,07,17,07,53,17.70
2015,07,17,07,54,17.70
2015,07,17,07,55,17.80
2015,07,17,07,56,17.80
2015,07,17,07,57,17.90
2015,07,17,07,58,17.90
2015,07,17,07,59,18.00
2015,07,17,08,00,18.00
2015,07,17,08,01,18.00
2015,07,17,08,02,17.90
2015,07,17,08,03,17.90
2015,07,17,08,04,17.90
2015,07,17,08,05,17.90
2015,07,17,08,06,17.90
2015,07,17,08,07,17.90
2015,07,17,08,08,17.90
2015,07,17,08,09,17.90
2015,07,17,08,10,18.00
2015,07,17,08,11,18.00
2015,07,17,08,12,18.10
2015,07,17,08,13,18.20
2015,07,17,08,14,18.20
2015,07,17,08,15,18.30
2015,07,17,08,16,18.40
2015,07,17,08,17,18.50
2015,07,17,08,18,18.60
2015,07,17,08,19,18.60
2015,07,17,08,20,18.60
2015,07,17,08,21,18.60
2015,07,17,08,22,18.60
2015,07,17,08,23,18.50
2015,07,17,08,24,18.50
2015,07,17,08,25,18.50
2015,07,17,08,26,18.60
2015,07,17,08,27,18.60
2015,07,17,08,28,18.70
2015,07,17,08,29,18.80
2015,07,17,08,30,18.90
2015,07,17,08,31,19.00
2015,07,17,08,32,19.00
2015,07,17,08,33,19.10
2015,07,17,08,34,19.10
2015,07,17,08,35,19.10
2015,07,17,08,36,19.10
2015,07,17,08,37,19.10
2015,07,17,08,38,19.10
2015,07,17,08,39,19.10
2015,07,17,08,40,19.10
2015,07,17,08,41,19.10
2015,07,17,08,42,19.10
2015,07,17,08,43,19.10
2015,07,17,08,44,19.10
2015,07,17,08,45,19.10
2015,07,17,08,46,19.10
2015,07,17,08,47,19.20
2015,07,17,08,48,19.20
2015,07,17,08,49,19.30
2015,07,17,08,50,19.30
2015,07,17,08,51,19.30
2015,07,17,08,52,19.40
2015,07,17,08,53,19.40
2015,07,17,08,54,19.40
2015,07,17,08,55,19.40
2015,07,17,08,56,19.40
2015,07,17,08,57,19.40
2015,07,17,08,58,19.40
2015,07,17,08,59,19.40
2015,07,17,09,00,19.40
2015,07,17,09,01,19.40
2015,07,17,09,02,19.50
2015,07,17,09,03,19.50
2015,07,17,09,04,19.60
2015,07,17,09,05,19.60
2015,07,17,09,06,19.70
2015,07,17,09,07,19.70
2015,07,17,09,08,19.80
2015,07,17,09,09,19.80
2015,07,17,09,10,19.80
2015,07,17,09,11,19.80
2015,07,17,09,12,19.90
2015,07,17,09,13,19.90
2015,07,17,09,14,20.00
2015,07,17,09,15,20.10
2015,07,17,09,16,20.20
2015,07,17,09,17,20.20
2015,07,17,09,18,20.30
2015,07,17,09,19,20.30
2015,07,17,09,20,20.30
2015,07,17,09,21,20.30
2015,07,17,09,22,20.30
2015,07,17,09,23,20.30
2015,07,17,09,24,20.30
2015,07,17,09,25,20.30
2015,07,17,09,26,20.40
2015,07,17,09,27,20.40
2015,07,17,09,28,20.40
2015,07,17,09,29,20.50
2015,07,17,09,30,20.50
2015,07,17,09,31,20.60
2015,07,17,09,32,20.60
2015,07,17,09,33,20.70
2015,07,17,09,34,20.80
2015,07,17,09,35,20.80
2015,07,17,09,36,20.90
2015,07,17,09,37,20.90
2015,07,17,09,38,21.00
2015,07,17,09,39,21.00
2015,07,17,09,40,21.10
2015,07,17,09,41,21.10
2015,07,17,09,42,21.10
2015,07,17,09,43,21.10
2015,07,17,09,44,21.20
2015,07,17,09,45,21.20
2015,07,17,09,46,21.30
2015,07,17,09,47,21.30
2015,07,17,09,48,21.30
2015,07,17,09,49,21.30
2015,07,17,09,50,21.30
2015,07,17,09,51,21.30
2015,07,17,09,52,21.20
2015,07,17,09,53,21.30
2015,07,17,09,54,21.30
2015,07,17,09,55,21.30
2015,07,17,09,56,21.30
2015,07,17,09,57,21.40
2015,07,17,09,58,21.40
2015,07,17,09,59,21.50
2015,07,17,10,00,21.60
2015,07,17,10,01,21.60
2015,07,17,10,02,21.60
2015,07,17,10,03,21.70
2015,07,17,10,04,21.70
2015,07,17,10,05,21.70
2015,07,17,10,06,21.70
2015,07,17,10,07,21.70
2015,07,17,10,08,21.80
2015,07,17,10,09,21.80
2015,07,17,10,10,21.80
2015,07,17,10,11,21.80
2015,07,17,10,12,21.90
2015,07,17,10,13,21.90
2015,07,17,10,14,21.90
2015,07,17,10,15,21.90
2015,07,17,10,16,21.80
2015,07,17,10,17,21.80
2015,07,17,10,18,21.80
2015,07,17,10,19,21.80
2015,07,17,10,20,21.80
2015,07,17,10,21,21.90
2015,07,17,10,22,21.90
2015,07,17,10,23,22.00
2015,07,17,10,24,22.00
2015,07,17,10,25,22.00
2015,07,17,10,26,22.10
2015,07,17,10,27,22.20
2015,07,17,10,28,22.20
2015,07,17,10,29,22.30
2015,07,17,10,30,22.30
2015,07,17,10,31,22.40
2015,07,17,10,32,22.40
2015,07,17,10,33,22.40
2015,07,17,10,34,22.50
2015,07,17,10,35,22.60
2015,07,17,10,36,22.60
2015,07,17,10,37,22.60
2015,07,17,10,38,22.60
2015,07,17,10,39,22.60
2015,07,17,10,40,22.60
2015,07,17,10,41,22.60
2015,07,17,10,42,22.70
2015,07,17,10,43,22.80
2015,07,17,10,44,22.80
2015,07,17,10,45,22.80
2015,07,17,10,46,22.90
2015,07,17,10,47,22.90
2015,07,17,10,48,22.90
2015,07,17,10,49,23.00
2015,07,17,10,50,23.00
2015,07,17,10,51,23.00
2015,07,17,10,52,23.00
2015,07,17,10,53,23.10
2015,07,17,10,54,23.10
2015,07,17,10,55,23.10
2015,07,17,10,56,23.10
2015,07,17,10,57,23.20
2015,07,17,10,58,23.20
2015,07,17,10,59,23.20
2015,07,17,11,00,23.30
2015,07,17,11,01,23.30
2015,07,17,11,02,23.30
2015,07,17,11,03,23.40
2015,07,17,11,04,23.40
2015,07,17,11,05,23.40
2015,07,17,11,06,23.50
2015,07,17,11,07,23.50
2015,07,17,11,08,23.60
2015,07,17,11,09,23.60
2015,07,17,11,10,23.70
2015,07,17,11,11,23.70
2015,07,17,11,12,23.80
2015,07,17,11,13,23.80
2015,07,17,11,14,23.80
2015,07,17,11,15,23.90
2015,07,17,11,16,23.90
2015,07,17,11,17,24.00
2015,07,17,11,18,24.00
2015,07,17,11,19,24.10
2015,07,17,11,20,24.10
2015,07,17,11,21,24.10
2015,07,17,11,22,24.10
2015,07,17,11,23,24.10
2015,07,17,11,24,24.20
2015,07,17,11,25,24.20
2015,07,17,11,26,24.30
2015,07,17,11,27,24.30
2015,07,17,11,28,24.30
2015,07,17,11,29,24.30
2015,07,17,11,30,24.40
2015,07,17,11,31,24.50
2015,07,17,11,32,24.50
2015,07,17,11,33,24.60
2015,07,17,11,34,24.60
2015,07,17,11,35,24.60
2015,07,17,11,36,24.50
2015,07,17,11,37,24.50
2015,07,17,11,38,24.50
2015,07,17,11,39,24.50
2015,07,17,11,40,24.50
2015,07,17,11,41,24.40
2015,07,17,11,42,24.40
2015,07,17,11,43,24.60
2015,07,17,11,44,24.70
2015,07,17,11,45,24.80
2015,07,17,11,46,24.80
2015,07,17,11,47,24.90
2015,07,17,11,48,25.00
2015,07,17,11,49,25.10
2015,07,17,11,50,25.10
2015,07,17,11,51,25.10
2015,07,17,11,52,25.20
2015,07,17,11,53,25.30
2015,07,17,11,54,25.40
2015,07,17,11,55,25.50
2015,07,17,11,56,25.50
2015,07,17,11,57,25.50
2015,07,17,11,58,25.50
2015,07,17,11,59,25.50
2015,07,17,12,00,25.50
2015,07,17,12,01,25.40
2015,07,17,12,02,25.30
2015,07,17,12,03,25.30
2015,07,17,12,04,25.30
2015,07,17,12,05,25.40
2015,07,17,12,06,25.40
2015,07,17,12,07,25.40
2015,07,17,12,08,25.40
2015,07,17,12,09,25.40
2015,07,17,12,10,25.40
2015,07,17,12,11,25.40
2015,07,17,12,12,25.40
2015,07,17,12,13,25.40
2015,07,17,12,14,25.40
2015,07,17,12,15,25.50
2015,07,17,12,16,25.60
2015,07,17,12,17,25.60
2015,07,17,12,18,25.60
2015,07,17,12,19,25.60
2015,07,17,12,20,25.60
2015,07,17,12,21,25.70
2015,07,17,12,22,25.70
2015,07,17,12,23,25.70
2015,07,17,12,24,25.80
2015,07,17,12,25,25.90
2015,07,17,12,26,26.00
2015,07,17,12,27,26.10
2015,07,17,12,28,26.10
2015,07,17,12,29,26.10
2015,07,17,12,30,26.10
2015,07,17,12,31,26.00
2015,07,17,12,32,26.00
2015,07,17,12,33,26.10
2015,07,17,12,34,26.10
2015,07,17,12,35,26.10
2015,07,17,12,36,26.20
2015,07,17,12,37,26.10
2015,07,17,12,38,26.10
2015,07,17,12,39,26.10
2015,07,17,12,40,26.10
2015,07,17,12,41,26.00
2015,07,17,12,42,26.00
2015,07,17,12,43,26.00
2015,07,17,12,44,25.90
2015,07,17,12,45,26.00
2015,07,17,12,46,26.00
2015,07,17,12,47,26.00
2015,07,17,12,48,26.10
2015,07,17,12,49,26.20
2015,07,17,12,50,26.30
2015,07,17,12,51,26.30
2015,07,17,12,52,26.40
2015,07,17,12,53,26.50
2015,07,17,12,54,26.50
2015,07,17,12,55,26.50
2015,07,17,12,56,26.60
2015,07,17,12,57,26.60
2015,07,17,12,58,26.60
2015,07,17,12,59,26.60
2015,07,17,13,00,26.60
2015,07,17,13,01,26.60
2015,07,17,13,02,26.60
2015,07,17,13,03,26.70
2015,07,17,13,04,26.70
2015,07,17,13,05,26.80
2015,07,17,13,06,26.80
2015,07,17,13,07,26.80
2015,07,17,13,08,26.80
2015,07,17,13,09,26.90
2015,07,17,13,10,27.10
2015,07,17,13,11,27.20
2015,07,17,13,12,27.20
2015,07,17,13,13,27.30
2015,07,17,13,14,27.30
2015,07,17,13,15,27.40
2015,07,17,13,16,27.50
2015,07,17,13,17,27.40
2015,07,17,13,18,27.40
2015,07,17,13,19,27.40
2015,07,17,13,20,27.40
2015,07,17,13,21,27.40
2015,07,17,13,22,27.40
2015,07,17,13,23,27.50
2015,07,17,13,24,27.60
2015,07,17,13,25,27.60
2015,07,17,13,26,27.70
2015,07,17,13,27,27.80
2015,07,17,13,28,27.90
2015,07,17,13,29,28.00
2015,07,17,13,30,28.20
2015,07,17,13,31,28.30
2015,07,17,13,32,28.20
2015,07,17,13,33,28.20
2015,07,17,13,34,28.20
2015,07,17,13,35,28.20
2015,07,17,13,36,28.20
2015,07,17,13,37,28.20
2015,07,17,13,38,28.20
2015,07,17,13,39,28.20
2015,07,17,13,40,28.20
2015,07,17,13,41,28.20
2015,07,17,13,42,28.10
2015,07,17,13,43,28.10
2015,07,17,13,44,28.20
2015,07,17,13,45,28.30
2015,07,17,13,46,28.30
2015,07,17,13,47,28.30
2015,07,17,13,48,28.30
2015,07,17,13,49,28.40
2015,07,17,13,50,28.50
2015,07,17,13,51,28.60
2015,07,17,13,52,28.70
2015,07,17,13,53,28.80
2015,07,17,13,54,28.80
2015,07,17,13,55,28.80
2015,07,17,13,56,28.70
2015,07,17,13,57,28.60
2015,07,17,13,58,28.50
2015,07,17,13,59,28.50
2015,07,17,14,00,28.50
2015,07,17,14,01,28.50
2015,07,17,14,02,28.60
2015,07,17,14,03,28.70
2015,07,17,14,04,28.70
2015,07,17,14,05,28.70
2015,07,17,14,06,28.70
2015,07,17,14,07,28.70
2015,07,17,14,08,28.70
2015,07,17,14,09,28.70
2015,07,17,14,10,28.60
2015,07,17,14,11,28.70
2015,07,17,14,12,28.70
2015,07,17,14,13,28.70
2015,07,17,14,14,28.80
2015,07,17,14,15,28.80
2015,07,17,14,16,28.90
2015,07,17,14,17,28.90
2015,07,17,14,18,28.90
2015,07,17,14,19,28.90
2015,07,17,14,20,28.90
2015,07,17,14,21,28.90
2015,07,17,14,22,28.90
2015,07,17,14,23,28.90
2015,07,17,14,24,28.90
2015,07,17,14,25,28.80
2015,07,17,14,26,28.80
2015,07,17,14,27,28.90
2015,07,17,14,28,29.00
2015,07,17,14,29,29.20
2015,07,17,14,30,29.30
2015,07,17,14,31,29.50
2015,07,17,14,32,29.60
2015,07,17,14,33,29.70
2015,07,17,14,34,29.80
2015,07,17,14,35,29.80
2015,07,17,14,36,29.90
2015,07,17,14,37,29.90
2015,07,17,14,38,29.80
2015,07,17,14,39,29.70
2015,07,17,14,40,29.60
2015,07,17,14,41,29.60
2015,07,17,14,42,29.60
2015,07,17,14,43,29.60
2015,07,17,14,44,29.70
2015,07,17,14,45,29.80
2015,07,17,14,46,29.80
2015,07,17,14,47,29.90
2015,07,17,14,48,30.00
2015,07,17,14,49,30.10
2015,07,17,14,50,30.20
2015,07,17,14,51,30.30
2015,07,17,14,52,30.30
2015,07,17,14,53,30.40
2015,07,17,14,54,30.40
2015,07,17,14,55,30.40
2015,07,17,14,56,30.20
2015,07,17,14,57,30.10
2015,07,17,14,58,30.10
2015,07,17,14,59,30.10
2015,07,17,15,00,30.10
2015,07,17,15,01,30.10
2015,07,17,15,02,30.10
2015,07,17,15,03,30.20
2015,07,17,15,04,30.30
2015,07,17,15,05,30.40
2015,07,17,15,06,30.40
2015,07,17,15,07,30.30
2015,07,17,15,08,30.20
2015,07,17,15,09,30.20
2015,07,17,15,10,30.30
2015,07,17,15,11,30.30
2015,07,17,15,12,30.40
2015,07,17,15,13,30.50
2015,07,17,15,14,30.50
2015,07,17,15,15,30.60
2015,07,17,15,16,30.60
2015,07,17,15,17,30.40
2015,07,17,15,18,30.20
2015,07,17,15,19,30.10
2015,07,17,15,20,30.10
2015,07,17,15,21,30.20
2015,07,17,15,22,30.20
2015,07,17,15,23,30.20
2015,07,17,15,24,30.20
2015,07,17,15,25,30.10
2015,07,17,15,26,30.00
2015,07,17,15,27,29.90
2015,07,17,15,28,29.90
2015,07,17,15,29,30.00
2015,07,17,15,30,30.00
2015,07,17,15,31,30.10
2015,07,17,15,32,30.20
2015,07,17,15,33,30.20
2015,07,17,15,34,30.30
2015,07,17,15,35,30.30
2015,07,17,15,36,30.20
2015,07,17,15,37,30.10
2015,07,17,15,38,30.10
2015,07,17,15,39,30.10
2015,07,17,15,40,30.10
2015,07,17,15,41,30.20
2015,07,17,15,42,30.20
2015,07,17,15,43,30.10
2015,07,17,15,44,30.10
2015,07,17,15,45,30.10
2015,07,17,15,46,30.10
2015,07,17,15,47,30.20
2015,07,17,15,48,30.20
2015,07,17,15,49,30.10
2015,07,17,15,50,30.00
2015,07,17,15,51,29.90
2015,07,17,15,52,29.90
2015,07,17,15,53,30.00
2015,07,17,15,54,30.00
2015,07,17,15,55,30.10
2015,07,17,15,56,30.00
2015,07,17,15,57,30.00
2015,07,17,15,58,29.90
2015,07,17,15,59,29.90
2015,07,17,16,00,29.90
2015,07,17,16,01,29.90
2015,07,17,16,02,29.90
2015,07,17,16,03,29.90
2015,07,17,16,04,30.00
2015,07,17,16,05,30.10
2015,07,17,16,06,30.10
2015,07,17,16,07,30.10
2015,07,17,16,08,30.10
2015,07,17,16,09,30.10
2015,07,17,16,10,30.00
2015,07,17,16,11,29.90
2015,07,17,16,12,29.80
2015,07,17,16,13,29.70
2015,07,17,16,14,29.70
2015,07,17,16,15,29.70
2015,07,17,16,16,29.70
2015,07,17,16,17,29.60
2015,07,17,16,18,29.60
2015,07,17,16,19,29.50
2015,07,17,16,20,29.50
2015,07,17,16,21,29.40
2015,07,17,16,22,29.40
2015,07,17,16,23,29.50
2015,07,17,16,24,29.60
2015,07,17,16,25,29.60
2015,07,17,16,26,29.60
2015,07,17,16,27,29.60
2015,07,17,16,28,29.70
2015,07,17,16,29,29.70
2015,07,17,16,30,29.70
2015,07,17,16,31,29.70
2015,07,17,16,32,29.70
2015,07,17,16,33,29.70
2015,07,17,16,34,29.70
2015,07,17,16,35,29.70
2015,07,17,16,36,29.80
2015,07,17,16,37,29.80
2015,07,17,16,38,29.80
2015,07,17,16,39,29.90
2015,07,17,16,40,29.90
2015,07,17,16,41,30.00
2015,07,17,16,42,30.00
2015,07,17,16,43,30.10
2015,07,17,16,44,30.10
2015,07,17,16,45,30.10
2015,07,17,16,46,30.00
2015,07,17,16,47,30.00
2015,07,17,16,48,29.90
2015,07,17,16,49,29.90
2015,07,17,16,50,29.80
2015,07,17,16,51,29.70
2015,07,17,16,52,29.60
2015,07,17,16,53,29.50
2015,07,17,16,54,29.50
2015,07,17,16,55,29.50
2015,07,17,16,56,29.50
2015,07,17,16,57,29.40
2015,07,17,16,58,29.40
2015,07,17,16,59,29.50
2015,07,17,17,00,29.50
2015,07,17,17,01,29.60
2015,07,17,17,02,29.60
2015,07,17,17,03,29.60
2015,07,17,17,04,29.50
2015,07,17,17,05,29.50
2015,07,17,17,06,29.50
2015,07,17,17,07,29.50
2015,07,17,17,08,29.50
2015,07,17,17,09,29.50
2015,07,17,17,10,29.60
2015,07,17,17,11,29.60
2015,07,17,17,12,29.60
2015,07,17,17,13,29.60
2015,07,17,17,14,29.60
2015,07,17,17,15,29.60
2015,07,17,17,16,29.70
2015,07,17,17,17,29.70
2015,07,17,17,18,29.70
2015,07,17,17,19,29.70